Location: Tel Aviv
(32.0670°N, 34.7670°E)
Time: 21:07:37
(UTC+03:00)

Transit 2A - Pass Details

Date: 30 May 2024
Orbit: 593 x 959 km, 66.7° (Epoch: 14 June)

Event Time Altitude Azimuth Distance (km) Brightness Sun altitude
Rises 21:29:40 0° 229° (SW) 2,883 9.1 -19.6°
Reaches altitude 10° 21:32:04 10° 241° (WSW) 2,019 8.4 -20.0°
Maximum altitude 21:36:05 31° 303° (WNW) 1,186 7.7 -20.6°
Drops below altitude 10° 21:40:28 10° 5° (N) 2,204 8.9 -21.2°
Sets 21:43:13 0° 16° (NNE) 3,197 9.6 -21.6°
